User: anonymous   Login
Location: Wells
(51.2093°N, 2.6446°W)
Time: 20:56:16
(UTC+00:00)
Language:

FO-29 - Orbit

View from above orbital plane
View from above orbital plane
View from above satellite
View from above satellite

Ground track
Ground track

The orbit is defined by the following mean orbital elements,

1 24278U          26075.15271095 +.00000000 +00000-0 +63477-4 0 00007
2 24278  98.5372 296.6978 0349549 338.0010  20.6432 13.53269236    02
Epoch (UTC): 16 March 2026 03:39:54
Eccentricity: 0.0349549
inclination: 98.5372°
perigee height: 800 km
apogee height: 1320 km
right ascension of ascending node: 296.6978°
argument of perigee: 338.0010°
revolutions per day: 13.53269236
mean anomaly at epoch: 20.6432°

The dashed part of the orbit path shows where the satellite is in the earth's shadow,  

DLR